Date String (YYYY-MM-DD hh:mm:ss) UTC,Instrument flags,Ambient pressure (hPa),Sample flow (lpm),Bypass flow (lpm),Sample temperature (°C),Ambient temperature (°C),ASC tube jacket temperature (°C),LED temperature (°C),Box temperature (°C),Sample RH (%),Span deviation,Mass concentration (μg/m³),Mass concentration (μg/m³),Mass concentration (μg/m³)
DateTimeUTC,F1_M11,P_M11,Q1_M11,Q2_M11,T1_M11,T2_M11,T3_M11,T4_M11,T5_M11,U1_M11,ZSPAN_M11,X0_M11,X2_M11,X1_M11
2022-05-02 00:00:00,,0819.7,4.98,0.00,30.2,29.2,00.0,39.2,31.8,11.1,0000.0,0018.06,0005.48,0003.81
2022-05-02 00:01:00,,0819.7,5.01,0.00,30.2,29.2,00.0,39.2,31.8,11.1,0000.0,0017.28,0005.48,0003.81
2022-05-02 00:02:00,,0819.7,4.98,0.00,30.2,29.2,00.0,39.2,31.9,11.0,0000.0,0017.20,0005.49,0003.82
2022-05-02 00:03:00,,0819.7,5.01,0.00,30.2,29.2,00.0,39.2,32.0,11.1,0000.0,0016.84,0005.54,0003.83
2022-05-02 00:04:00,,0819.7,4.99,0.00,30.2,29.2,00.0,39.2,31.9,11.1,0000.0,0016.74,0005.56,0003.83
2022-05-02 00:05:00,,0819.6,5.01,0.00,30.2,29.2,00.0,39.2,31.9,11.1,0000.0,0016.35,0005.55,0003.83
2022-05-02 00:06:00,,0819.6,4.99,0.00,30.2,29.2,00.0,39.2,31.9,11.2,0000.0,0016.01,0005.53,0003.82
2022-05-02 00:07:00,,0819.6,5.01,0.00,30.2,29.2,00.0,39.2,31.9,11.2,0000.0,0015.65,0005.54,0003.82
2022-05-02 00:08:00,,0819.7,4.99,0.00,30.2,29.2,00.0,39.2,31.9,11.1,0000.0,0015.57,0005.54,0003.81
2022-05-02 00:09:00,,0819.7,5.02,0.00,30.2,29.2,00.0,39.2,31.9,11.1,0000.0,0015.89,0005.45,0003.82
2022-05-02 00:10:00,,0819.7,4.99,0.00,30.2,29.2,00.0,39.2,31.9,11.1,0000.0,0014.78,0005.42,0003.82
2022-05-02 00:11:00,,0819.8,5.00,0.00,30.2,29.2,00.0,39.2,31.9,11.1,0000.0,0014.58,0005.43,0003.83
2022-05-02 00:12:00,,0819.8,5.00,0.00,30.2,29.2,00.0,39.2,31.9,11.2,0000.0,0014.61,0005.48,0003.84
2022-05-02 00:13:00,,0819.8,5.00,0.00,30.2,29.2,00.0,39.2,31.9,11.2,0000.0,0014.81,0005.55,0003.83
2022-05-02 00:14:00,,0819.8,4.98,0.00,30.2,29.2,00.0,39.2,31.9,11.2,0000.0,0015.05,0005.54,0003.82
2022-05-02 00:15:00,,0819.7,5.01,0.00,30.2,29.2,00.0,39.2,31.9,11.3,0000.0,0016.23,0005.48,0003.82
2022-05-02 00:16:00,,0819.7,5.00,0.00,30.2,29.2,00.0,39.2,31.9,11.4,0000.0,0017.07,0005.51,0003.81
2022-05-02 00:17:00,,0819.6,5.01,0.00,30.2,29.2,00.0,39.2,31.9,11.5,0000.0,0016.59,0005.50,0003.80
2022-05-02 00:18:00,,0819.5,4.99,0.00,30.2,29.2,00.0,39.2,31.9,11.5,0000.0,0015.73,0005.44,0003.80
2022-05-02 00:19:00,,0819.5,5.00,0.00,30.2,29.2,00.0,39.2,31.9,11.5,0000.0,0015.88,0005.43,0003.79
2022-05-02 00:20:00,,0819.4,5.00,0.00,30.2,29.2,00.0,39.2,31.9,11.4,0000.0,0015.70,0005.47,0003.78
2022-05-02 00:21:00,,0819.4,5.00,0.00,30.2,29.2,00.0,39.2,31.9,11.4,0000.0,0016.95,0005.48,0003.78
2022-05-02 00:22:00,,0819.4,5.00,0.00,30.2,29.2,00.0,39.2,31.9,11.4,0000.0,0017.71,0005.52,0003.79
2022-05-02 00:23:00,,0819.4,4.99,0.00,30.2,29.2,00.0,39.2,31.9,11.5,0000.0,0017.76,0005.48,0003.76
2022-05-02 00:24:00,,0819.4,5.00,0.00,30.2,29.2,00.0,39.2,31.9,11.5,0000.0,0017.98,0005.48,0003.76
2022-05-02 00:25:00,,0819.4,5.00,0.00,30.1,29.2,00.0,39.2,31.8,11.5,0000.0,0018.10,0005.55,0003.76
2022-05-02 00:26:00,,0819.4,4.98,0.00,30.1,29.2,00.0,39.2,31.8,11.6,0000.0,0017.83,0005.61,0003.77
2022-05-02 00:27:00,,0819.4,5.01,0.00,30.1,29.2,00.0,39.2,31.8,11.7,0000.0,0017.19,0005.63,0003.79
2022-05-02 00:28:00,,0819.5,4.99,0.00,30.1,29.1,00.0,39.1,31.8,11.7,0000.0,0017.20,0005.66,0003.81
2022-05-02 00:29:00,,0819.5,5.01,0.00,30.1,29.1,00.0,39.1,31.8,11.7,0000.0,0017.23,0005.69,0003.83
2022-05-02 00:30:00,,0819.5,5.01,0.00,30.1,29.1,00.0,39.1,31.7,11.8,0000.0,0017.44,0005.67,0003.83
2022-05-02 00:31:00,,0819.5,4.98,0.00,30.1,29.1,00.0,39.1,31.7,11.8,0000.0,0017.09,0005.63,0003.84
2022-05-02 00:32:00,,0819.5,5.01,0.00,30.1,29.1,00.0,39.1,31.8,11.8,0000.0,0015.85,0005.67,0003.86
2022-05-02 00:33:00,,0819.5,4.99,0.00,30.1,29.1,00.0,39.1,31.8,11.9,0000.0,0014.75,0005.67,0003.88
2022-05-02 00:34:00,,0819.6,5.01,0.00,30.1,29.1,00.0,39.1,31.7,12.0,0000.0,0014.58,0005.68,0003.91
2022-05-02 00:35:00,,0819.5,5.00,0.00,30.0,29.1,00.0,39.1,31.7,12.1,0000.0,0014.21,0005.68,0003.93
2022-05-02 00:36:00,,0819.5,5.01,0.00,30.0,29.0,00.0,39.1,31.7,12.2,0000.0,0014.01,0005.60,0003.95
2022-05-02 00:37:00,,0819.5,4.99,0.00,30.0,29.0,00.0,39.1,31.7,12.2,0000.0,0013.95,0005.66,0003.97
2022-05-02 00:38:00,,0819.5,5.01,0.00,30.1,29.0,00.0,39.1,31.7,12.1,0000.0,0013.92,0005.67,0003.99
2022-05-02 00:39:00,,0819.6,4.98,0.00,30.0,29.0,00.0,39.1,31.7,12.2,0000.0,0014.34,0005.69,0004.01
2022-05-02 00:40:00,,0819.5,5.00,0.00,30.0,29.0,00.0,39.1,31.7,12.3,0000.0,0015.62,0005.73,0004.01
2022-05-02 00:41:00,,0819.5,4.99,0.00,30.1,29.0,00.0,39.1,31.7,12.3,0000.0,0015.58,0005.79,0004.04
2022-05-02 00:42:00,,0819.5,5.01,0.00,30.1,29.1,00.0,39.1,31.7,12.3,0000.0,0016.71,0005.83,0004.06
2022-05-02 00:43:00,,0819.5,4.99,0.00,30.1,29.1,00.0,39.1,31.8,12.3,0000.0,0016.49,0005.79,0004.06
2022-05-02 00:44:00,,0819.5,5.01,0.00,30.1,29.1,00.0,39.1,31.7,12.3,0000.0,0016.53,0005.80,0004.05
2022-05-02 00:45:00,,0819.5,5.00,0.00,30.1,29.0,00.0,39.1,31.7,12.3,0000.0,0016.76,0005.81,0004.03
2022-05-02 00:46:00,,0819.6,5.01,0.00,30.1,29.1,00.0,39.1,31.8,12.3,0000.0,0016.84,0005.82,0004.03
2022-05-02 00:47:00,,0819.5,4.98,0.00,30.1,29.1,00.0,39.1,31.8,12.3,0000.0,0017.15,0005.82,0004.02
2022-05-02 00:48:00,,0819.6,5.02,0.00,30.1,29.1,00.0,39.1,31.8,12.3,0000.0,0016.80,0005.79,0004.02
2022-05-02 00:49:00,,0819.7,4.98,0.00,30.1,29.0,00.0,39.1,31.7,12.4,0000.0,0016.94,0005.77,0004.01
2022-05-02 00:50:00,,0819.6,5.00,0.00,30.1,29.1,00.0,39.1,31.8,12.4,0000.0,0018.09,0005.79,0004.00
2022-05-02 00:51:00,,0819.6,5.00,0.00,30.1,29.1,00.0,39.1,31.8,12.4,0000.0,0017.66,0005.80,0004.02
2022-05-02 00:52:00,,0819.6,4.99,0.00,30.1,29.1,00.0,39.1,31.7,12.4,0000.0,0017.97,0005.75,0004.01
2022-05-02 00:53:00,,0819.6,5.01,0.00,30.1,29.1,00.0,39.1,31.7,12.3,0000.0,0017.67,0005.76,0004.01
2022-05-02 00:54:00,,0819.5,4.99,0.00,30.1,29.0,00.0,39.1,31.8,12.3,0000.0,0018.16,0005.80,0004.03
2022-05-02 00:55:00,,0819.5,5.00,0.00,30.1,29.1,00.0,39.1,31.7,12.3,0000.0,0018.14,0005.80,0004.04
2022-05-02 00:56:00,,0819.6,5.01,0.00,30.1,29.1,00.0,39.1,31.8,12.3,0000.0,0018.20,0005.82,0004.05
2022-05-02 00:57:00,,0819.6,4.98,0.00,30.1,29.1,00.0,39.1,31.8,12.6,0000.0,0019.17,0005.84,0004.07
2022-05-02 00:58:00,,0819.6,5.01,0.00,30.1,29.1,00.0,39.1,31.8,12.7,0000.0,0018.77,0005.91,0004.09
2022-05-02 00:59:00,,0819.5,4.99,0.00,30.1,29.1,00.0,39.1,31.7,12.7,0000.0,0018.74,0005.95,0004.10
